Regional Weather Roundup
Issued by NWS

Home | Current Version | Previous Version | Text Only | Print | Product List | Glossary On
Versions: 1 2 3 4 5 6 7 8 9 10 11 12 13 14 15 16 17 18 19 20 21 22 23 24 25 26 27 28 29 30 31 32 33 34 35 36 37 38 39 40 41 42 43 44 45 46 47 48 49 50
000
ASUS43 KTOP 042308
RWRKS

WEATHER ROUNDUP FOR KANSAS
NATIONAL WEATHER SERVICE GOODLAND KS
600 PM CDT SAT JUL 04 2015

NOTE:  "FAIR" INDICATES FEW OR NO CLOUDS BELOW 12,000 FEET WITH NO
SIGNIFICANT WEATHER AND/OR OBSTRUCTIONS TO VISIBILITY.

KSZ001>006-013>018-027>032-041>047-050000-
NORTHWEST KANSAS

CITY           SKY/WX    TMP DP  RH WIND       PRES   REMARKS
GOODLAND       MOSUNNY   92  58  31 S21       29.88F
HAYS           MOSUNNY   90  64  43 S15G24    29.89F
HILL CITY      MOSUNNY   93  62  35 S17       29.88F
RUSSELL        SUNNY     89  64  43 S15G24    29.89F
$$

KSZ061>065-074>080-084>089-050000-
SOUTHWEST KANSAS

CITY           SKY/WX    TMP DP  RH WIND       PRES   REMARKS
DODGE CITY     PTSUNNY   90  61  37 S17G25    29.90F
ELKHART          N/A     92  60  34 S22         N/A
GARDEN CITY    SUNNY     88  65  46 S15G24    29.89F
GREAT BEND     SUNNY     88  64  45 S17       29.90F
LIBERAL        MOSUNNY   88  59  37 S13       29.93S
PRATT          SUNNY     90  55  31 SE12      29.91F
$$

KSZ066>073-081>083-090>101-050000-
SOUTHEAST KANSAS

CITY           SKY/WX    TMP DP  RH WIND       PRES   REMARKS
CHANUTE        MOSUNNY   86  65  49 E6        29.93F
COFFEYVILLE    MOSUNNY   88  66  48 SE6       29.91F
HUTCHINSON     SUNNY     90  63  40 SE10      29.90F
MEDICINE LODGE   N/A     93  64  38 S10       29.88F
NEWTON         SUNNY     88  61  40 SE10G17   29.95F
PARSONS        MOSUNNY   87  68  52 VRB3      29.93F
WICHITA INTL   MOSUNNY   90  62  39 SE13      29.90F
WICHITA JABRA  MOSUNNY   88  63  43 SE8       29.91F
WICHITA MCCONL SUNNY     89  63  41 VRB7      29.91F
WINFIELD       SUNNY     89  64  43 S8        29.92F
$$

KSZ007>012-019>026-033>040-048>060-102>105-050000-
NORTHEAST KANSAS

CITY           SKY/WX    TMP DP  RH WIND       PRES   REMARKS
CONCORDIA      SUNNY     85  61  44 SE14      29.91F
EMPORIA        MOSUNNY   86  60  41 SE9       29.93F
LAWRENCE       MOSUNNY   80  63  55 SE7       29.95F
MANHATTAN      MOSUNNY   86  66  51 E8        29.92F
MARYSVILLE     SUNNY     82  64  54 S7        29.94F
OLATHE IND     MOSUNNY   82  62  50 S7        29.97F
OLATHE EXE     MOSUNNY   79  63  57 SE7       29.96F
SALINA         MOSUNNY   91  60  35 SE14      29.89F
TOPEKA BILLARD MOSUNNY   83  65  54 SE6       29.94F
TOPEKA FORBES  MOSUNNY   84  65  52 SE8       29.94F
$$


USA.gov is the U.S. government's official web portal to all federal, state and local government web resources and services.